Starlink 2700

operational
NORAD ID: 48431 Int'l Des: 2021-040 Owner: SPXS Country: US Constellation: starlink
LEOCIRCULARSTARLINK_TYPE

Über Starlink 2700

Beschreibung wird geladen...

Live-Position

3D-Globus wird geladen...

Nächste Überflüge

Höhenverlauf

Altitude vs Time

uPlot chart will show altitude changes over time

Zweizeiliger Elementsatz

1 48431U 21040D 25299.51876420 .00001685 00000-0 13202-3 0 9998
2 48431 53.0547 33.9355 0001307 88.1014 272.0124 15.06394394246821
Epoch: 26. Okt. 2025 • Age: 9 hours

Aktueller Status

Höhe 565.4 km
Geschwindigkeit 7.58 km/s
Subsatellitenpunkt -50.06°S, 82.95°W
Startdatum 9. Mai 2021
Alter 4.4 years
Typ internet

Technische Details

Klassifizierung Payload
Masse 260.00 kg
Trockenmasse 248.00 kg
Gesamtmasse 260.00 kg
Länge 0.20 m
Durchmesser 2.80 m
Spannweite 9.00 m
Form Box + pan
Hersteller SPXS
Bus-Typ Starlink
Phasenstatus In Orbit
Besitzer/Staat SPXS/US

Große Konstellationen

Loading constellations...